Location: Alpha Ridge Park
(39.3209°N, 76.9128°W)
Time: 15:29:47
(UTC-04:00)

S-56A Canister/Altair - Pass Details

Date: 22 May 2019
Orbit: 633 x 2499 km, 38.9° (Epoch: 15 June)

Event Time Altitude Azimuth Distance (km) Brightness Sun altitude
Rises 04:42:45 0° 265° (W) 3,822 - -11.5°
Exits shadow 04:44:30 - 265° (W) 3,236 10.2 -11.2°
Reaches altitude 10° 04:45:02 10° 265° (W) 3,061 10.1 -11.2°
Maximum altitude 04:52:49 88° 177° (S) 1,550 9.0 -10.0°
Drops below altitude 10° 05:04:54 10° 90° (E) 4,581 12.4 -8.1°
Sets 05:09:04 0° 90° (E) 5,804 13.0 -7.4°
